DECAYED

STARLINK-2631, 48366 (Decayed)

Orbit data source: Space-Track

STARLINK-2631, 48366 was a payload satellite owned by SpaceX/Seattle (US) in LEO that was launched on Tue, 04 May 2021 UTC via an FALCON 9 launch vehicle from the Air Force Eastern Test Range (AFETR). Payload-class satellites include a variety of spacecraft equipped with specific instruments for various scientific and technological missions. These include communications satellites like Starlink; space stations such as the ISS; scientific satellites like the Hubble; Earth observation satellites from companies like Planet Labs, Umbra, and HawkEye 360; GPS; miniature CubeSats for education and research; and military/defense satellites.

Not visible in the next 10 days
Identifier
48366, 2021-038P
Orbit
Decayed
Country
Flag of USUS
Related business
Manufacturer
SpaceX/Seattle
Mission
Decayed Commercial Communications
Bus & Motor
STARLINK, Unknown motor
Mass
260 kg wet, ~248 kg dry
Launch date (UTC)
2021-05-04 (5 years ago)
Launch vehicle
FALCON 9
Launch site
Air Force Eastern Test Range (AFETR)
Object type
Payload
Rocket body
Debris
Shape & HBR
Box + 1 Pan, 10.1 m
Radar Cross Section
13.562 m², Large (>1 m²)

Expand to show TLE details & history
Last TLE update: 10 months ago

TLE from 10 months ago
0 STARLINK-2631
1 48366U 21038P   25231.24739461  .11132663  12347-4  73614-3 0  9998
2 48366  53.0310 142.2815 0007394 253.8945 250.0797 16.40691725237769
Epoch: 2025-08-19T05:56Z
TLE epoch observation values (Epoch: 2025-08-19T05:56:14.894Z)
Latitude
28.17531°
Longitude
-118.25475°
Altitude
167.025 km
Speed
7.809 km/s
True Right ascension
19h 54m 35s
True Declination
28° 01' 10"
Sunlit
Object was in full shadow at epoch
Visualization orbit readout
Latitude
Unknown
Longitude
Unknown
Altitude
Unknown
Speed
Unknown
Apparent Right ascension
Unknown
Apparent Declination
Unknown
Sunlit
N/A
Visualization observer readout
Local Sidereal Time
21:23:54
Azimuth
Unknown
Elevation
Unknown
Doppler factor
Unknown
Orbital elements
Apogee altitude
169.091 km
Perigee altitude
159.416 km
Semi-major axis
6,542.39 km
Eccentricity
0.00074
Inclination
53.031°
RAAN
142.2815°
Arg. of periapsis
253.8945°
True anomaly
250.00007°
Mean anomaly
250.0797°
Eccentric anomaly
250.03988°
Mean motion
4.10146 °/min
Orbital period
87.77 mins
BSTAR
0.00073614
Loading maneuver chart data...
Computing Atmospheric mass density...
Loading historical data...
Loading historical data...
Loading historical data...
Loading historical data...
Loading historical data...
Loading historical data...
Loading historical data...

Documentation

Showing up to 5 results
|